#datetime,building,power
2023-06-26T00:00:00,axn,44.63
2023-06-26T00:01:00,axn,30.85
2023-06-26T00:02:00,axn,30.15
2023-06-26T00:03:00,axn,30.21
2023-06-26T00:04:00,axn,45.41
2023-06-26T00:05:00,axn,30.31
2023-06-26T00:06:00,axn,30.36
2023-06-26T00:07:00,axn,29.72
2023-06-26T00:08:00,axn,29.69
2023-06-26T00:09:00,axn,29.77
2023-06-26T00:10:00,axn,29.87
2023-06-26T00:11:00,axn,29.85
2023-06-26T00:12:00,axn,29.73
2023-06-26T00:13:00,axn,29.67
2023-06-26T00:14:00,axn,29.94
2023-06-26T00:15:00,axn,29.42
2023-06-26T00:16:00,axn,29.42
2023-06-26T00:17:00,axn,29.43
2023-06-26T00:18:00,axn,29.67
2023-06-26T00:19:00,axn,29.44
2023-06-26T00:20:00,axn,29.21
2023-06-26T00:21:00,axn,29.26
2023-06-26T00:22:00,axn,29.58
2023-06-26T00:23:00,axn,29.57
2023-06-26T00:24:00,axn,29.40
2023-06-26T00:25:00,axn,29.45
2023-06-26T00:26:00,axn,29.47
2023-06-26T00:27:00,axn,29.34
2023-06-26T00:28:00,axn,29.30
2023-06-26T00:29:00,axn,29.29
2023-06-26T00:30:00,axn,29.61
2023-06-26T00:31:00,axn,29.56
2023-06-26T00:32:00,axn,29.50
2023-06-26T00:33:00,axn,29.40
2023-06-26T00:34:00,axn,29.36
2023-06-26T00:35:00,axn,29.35
2023-06-26T00:36:00,axn,29.39
2023-06-26T00:37:00,axn,29.64
2023-06-26T00:38:00,axn,29.46
2023-06-26T00:39:00,axn,29.41
2023-06-26T00:40:00,axn,29.69
2023-06-26T00:41:00,axn,29.78
2023-06-26T00:42:00,axn,29.75
2023-06-26T00:43:00,axn,29.80
2023-06-26T00:44:00,axn,29.75
2023-06-26T00:45:00,axn,30.21
2023-06-26T00:46:00,axn,30.16
2023-06-26T00:47:00,axn,30.15
2023-06-26T00:48:00,axn,29.72
2023-06-26T00:49:00,axn,29.70
2023-06-26T00:50:00,axn,29.94
2023-06-26T00:51:00,axn,29.93
2023-06-26T00:52:00,axn,30.07
2023-06-26T00:53:00,axn,29.88
2023-06-26T00:54:00,axn,29.92
2023-06-26T00:55:00,axn,29.89
2023-06-26T00:56:00,axn,29.98
2023-06-26T00:57:00,axn,29.85
2023-06-26T00:58:00,axn,29.71
2023-06-26T00:59:00,axn,29.87
2023-06-26T01:00:00,axn,29.97
2023-06-26T01:01:00,axn,30.62
2023-06-26T01:02:00,axn,29.66
2023-06-26T01:03:00,axn,29.23
2023-06-26T01:04:00,axn,29.15
2023-06-26T01:05:00,axn,29.47
2023-06-26T01:06:00,axn,29.47
2023-06-26T01:07:00,axn,29.36
2023-06-26T01:08:00,axn,28.98
2023-06-26T01:09:00,axn,29.05
2023-06-26T01:10:00,axn,29.08
2023-06-26T01:11:00,axn,29.24
2023-06-26T01:12:00,axn,29.19
2023-06-26T01:13:00,axn,28.82
2023-06-26T01:14:00,axn,28.96
2023-06-26T01:15:00,axn,28.86
2023-06-26T01:16:00,axn,28.84
2023-06-26T01:17:00,axn,28.64
2023-06-26T01:18:00,axn,28.66
2023-06-26T01:19:00,axn,28.70
2023-06-26T01:20:00,axn,28.81
2023-06-26T01:21:00,axn,28.92
2023-06-26T01:22:00,axn,28.45
2023-06-26T01:23:00,axn,28.64
2023-06-26T01:24:00,axn,28.53
2023-06-26T01:25:00,axn,28.50
2023-06-26T01:26:00,axn,29.02
2023-06-26T01:27:00,axn,28.71
2023-06-26T01:28:00,axn,28.73
2023-06-26T01:29:00,axn,28.51
2023-06-26T01:30:00,axn,28.79
2023-06-26T01:31:00,axn,28.51
2023-06-26T01:32:00,axn,28.70
2023-06-26T01:33:00,axn,28.56
2023-06-26T01:34:00,axn,28.59
2023-06-26T01:35:00,axn,28.68
2023-06-26T01:36:00,axn,28.67
2023-06-26T01:37:00,axn,29.11
2023-06-26T01:38:00,axn,28.54
2023-06-26T01:39:00,axn,28.43
2023-06-26T01:40:00,axn,28.45
2023-06-26T01:41:00,axn,28.64
2023-06-26T01:42:00,axn,28.82
2023-06-26T01:43:00,axn,29.11
2023-06-26T01:44:00,axn,28.96
2023-06-26T01:45:00,axn,28.62
2023-06-26T01:46:00,axn,28.54
2023-06-26T01:47:00,axn,28.71
2023-06-26T01:48:00,axn,28.70
2023-06-26T01:49:00,axn,29.02
2023-06-26T01:50:00,axn,28.95
2023-06-26T01:51:00,axn,28.65
2023-06-26T01:52:00,axn,28.71
2023-06-26T01:53:00,axn,28.55
2023-06-26T01:54:00,axn,28.59
2023-06-26T01:55:00,axn,28.65
2023-06-26T01:56:00,axn,28.68
2023-06-26T01:57:00,axn,28.85
2023-06-26T01:58:00,axn,28.60
2023-06-26T01:59:00,axn,28.35
2023-06-26T02:00:00,axn,27.79
2023-06-26T02:01:00,axn,28.19
2023-06-26T02:02:00,axn,28.07
2023-06-26T02:03:00,axn,28.11
2023-06-26T02:04:00,axn,28.25
2023-06-26T02:05:00,axn,28.46
2023-06-26T02:06:00,axn,28.05
2023-06-26T02:07:00,axn,28.04
2023-06-26T02:08:00,axn,28.01
2023-06-26T02:09:00,axn,28.06
2023-06-26T02:10:00,axn,27.79
2023-06-26T02:11:00,axn,27.81
2023-06-26T02:12:00,axn,27.75
2023-06-26T02:13:00,axn,28.12
2023-06-26T02:14:00,axn,27.79
2023-06-26T02:15:00,axn,28.32
2023-06-26T02:16:00,axn,29.06
2023-06-26T02:17:00,axn,28.04
2023-06-26T02:18:00,axn,27.80
2023-06-26T02:19:00,axn,28.27
2023-06-26T02:20:00,axn,28.00
2023-06-26T02:21:00,axn,28.14
2023-06-26T02:22:00,axn,28.00
2023-06-26T02:23:00,axn,28.08
2023-06-26T02:24:00,axn,28.09
2023-06-26T02:25:00,axn,28.28
2023-06-26T02:26:00,axn,28.24
2023-06-26T02:27:00,axn,28.27
2023-06-26T02:28:00,axn,28.17
2023-06-26T02:29:00,axn,28.64
2023-06-26T02:30:00,axn,28.28
2023-06-26T02:31:00,axn,28.61
2023-06-26T02:32:00,axn,28.21
2023-06-26T02:33:00,axn,30.99
2023-06-26T02:34:00,axn,28.06
2023-06-26T02:35:00,axn,28.00
2023-06-26T02:36:00,axn,28.16
2023-06-26T02:37:00,axn,28.16
2023-06-26T02:38:00,axn,28.56
2023-06-26T02:39:00,axn,28.32
2023-06-26T02:40:00,axn,28.55
2023-06-26T02:41:00,axn,28.15
2023-06-26T02:42:00,axn,28.31
2023-06-26T02:43:00,axn,28.15
2023-06-26T02:44:00,axn,32.70
2023-06-26T02:45:00,axn,32.70
2023-06-26T02:46:00,axn,32.72
2023-06-26T02:47:00,axn,28.45
2023-06-26T02:48:00,axn,28.24
2023-06-26T02:49:00,axn,28.28
2023-06-26T02:50:00,axn,28.10
2023-06-26T02:51:00,axn,28.32
2023-06-26T02:52:00,axn,28.56
2023-06-26T02:53:00,axn,28.68
2023-06-26T02:54:00,axn,28.38
2023-06-26T02:55:00,axn,28.43
2023-06-26T02:56:00,axn,28.46
2023-06-26T02:57:00,axn,28.55
2023-06-26T02:58:00,axn,28.58
2023-06-26T02:59:00,axn,28.82
2023-06-26T03:00:00,axn,28.54
2023-06-26T03:01:00,axn,28.52
2023-06-26T03:02:00,axn,28.50
2023-06-26T03:03:00,axn,28.67
2023-06-26T03:04:00,axn,31.42
2023-06-26T03:05:00,axn,31.83
2023-06-26T03:06:00,axn,31.59
2023-06-26T03:07:00,axn,28.73
2023-06-26T03:08:00,axn,28.74
2023-06-26T03:09:00,axn,28.71
2023-06-26T03:10:00,axn,28.46
2023-06-26T03:11:00,axn,28.42
2023-06-26T03:12:00,axn,28.58
2023-06-26T03:13:00,axn,28.43
2023-06-26T03:14:00,axn,28.78
2023-06-26T03:15:00,axn,28.44
2023-06-26T03:16:00,axn,28.43
2023-06-26T03:17:00,axn,28.42
2023-06-26T03:18:00,axn,28.34
2023-06-26T03:19:00,axn,28.43
2023-06-26T03:20:00,axn,28.51
2023-06-26T03:21:00,axn,28.45
2023-06-26T03:22:00,axn,28.52
2023-06-26T03:23:00,axn,28.47
2023-06-26T03:24:00,axn,28.45
2023-06-26T03:25:00,axn,28.51
2023-06-26T03:26:00,axn,28.48
2023-06-26T03:27:00,axn,28.52
2023-06-26T03:28:00,axn,28.51
2023-06-26T03:29:00,axn,28.73
2023-06-26T03:30:00,axn,28.44
2023-06-26T03:31:00,axn,28.46
2023-06-26T03:32:00,axn,28.29
2023-06-26T03:33:00,axn,28.38
2023-06-26T03:34:00,axn,28.45
2023-06-26T03:35:00,axn,28.21
2023-06-26T03:36:00,axn,28.27
2023-06-26T03:37:00,axn,28.27
2023-06-26T03:38:00,axn,28.91
2023-06-26T03:39:00,axn,28.70
2023-06-26T03:40:00,axn,29.07
2023-06-26T03:41:00,axn,28.76
2023-06-26T03:42:00,axn,29.24
2023-06-26T03:43:00,axn,28.70
2023-06-26T03:44:00,axn,28.69
2023-06-26T03:45:00,axn,28.70
2023-06-26T03:46:00,axn,28.62
2023-06-26T03:47:00,axn,28.66
2023-06-26T03:48:00,axn,29.09
2023-06-26T03:49:00,axn,28.84
2023-06-26T03:50:00,axn,28.74
2023-06-26T03:51:00,axn,28.74
2023-06-26T03:52:00,axn,28.77
2023-06-26T03:53:00,axn,28.70
2023-06-26T03:54:00,axn,28.71
2023-06-26T03:55:00,axn,28.52
2023-06-26T03:56:00,axn,28.57
2023-06-26T03:57:00,axn,28.43
2023-06-26T03:58:00,axn,28.77
2023-06-26T03:59:00,axn,28.34
2023-06-26T04:00:00,axn,28.54
2023-06-26T04:01:00,axn,28.61
2023-06-26T04:02:00,axn,28.62
2023-06-26T04:03:00,axn,28.54
2023-06-26T04:04:00,axn,28.44
2023-06-26T04:05:00,axn,28.65
2023-06-26T04:06:00,axn,28.54
2023-06-26T04:07:00,axn,28.52
2023-06-26T04:08:00,axn,28.61
2023-06-26T04:09:00,axn,33.73
2023-06-26T04:10:00,axn,28.45
2023-06-26T04:11:00,axn,28.51
2023-06-26T04:12:00,axn,28.90
2023-06-26T04:13:00,axn,28.53
2023-06-26T04:14:00,axn,28.43
2023-06-26T04:15:00,axn,28.30
2023-06-26T04:16:00,axn,28.26
2023-06-26T04:17:00,axn,28.35
2023-06-26T04:18:00,axn,28.42
2023-06-26T04:19:00,axn,28.43
2023-06-26T04:20:00,axn,28.35
2023-06-26T04:21:00,axn,28.26
2023-06-26T04:22:00,axn,28.38
2023-06-26T04:23:00,axn,28.27
2023-06-26T04:24:00,axn,28.24
2023-06-26T04:25:00,axn,27.77
2023-06-26T04:26:00,axn,27.69
2023-06-26T04:27:00,axn,27.73
2023-06-26T04:28:00,axn,27.68
2023-06-26T04:29:00,axn,27.82
2023-06-26T04:30:00,axn,27.87
2023-06-26T04:31:00,axn,27.72
2023-06-26T04:32:00,axn,27.90
2023-06-26T04:33:00,axn,28.34
2023-06-26T04:34:00,axn,28.42
2023-06-26T04:35:00,axn,28.50
2023-06-26T04:36:00,axn,28.55
2023-06-26T04:37:00,axn,28.39
2023-06-26T04:38:00,axn,28.51
2023-06-26T04:39:00,axn,28.75
2023-06-26T04:40:00,axn,28.78
2023-06-26T04:41:00,axn,29.90
2023-06-26T04:42:00,axn,30.29
2023-06-26T04:43:00,axn,30.02
2023-06-26T04:44:00,axn,29.60
2023-06-26T04:45:00,axn,29.68
2023-06-26T04:46:00,axn,29.49
2023-06-26T04:47:00,axn,29.38
2023-06-26T04:48:00,axn,29.38
2023-06-26T04:49:00,axn,29.39
2023-06-26T04:50:00,axn,29.36
2023-06-26T04:51:00,axn,29.38
2023-06-26T04:52:00,axn,29.43
2023-06-26T04:53:00,axn,29.38
2023-06-26T04:54:00,axn,29.27
2023-06-26T04:55:00,axn,30.78
2023-06-26T04:56:00,axn,29.10
2023-06-26T04:57:00,axn,29.60
2023-06-26T04:58:00,axn,29.17
2023-06-26T04:59:00,axn,29.07
2023-06-26T05:00:00,axn,28.60
2023-06-26T05:01:00,axn,26.92
2023-06-26T05:02:00,axn,27.16
2023-06-26T05:03:00,axn,27.28
2023-06-26T05:04:00,axn,27.13
2023-06-26T05:05:00,axn,27.12
2023-06-26T05:06:00,axn,27.14
2023-06-26T05:07:00,axn,27.05
2023-06-26T05:08:00,axn,27.11
2023-06-26T05:09:00,axn,27.01
2023-06-26T05:10:00,axn,26.99
2023-06-26T05:11:00,axn,27.07
2023-06-26T05:12:00,axn,27.13
2023-06-26T05:13:00,axn,26.94
2023-06-26T05:14:00,axn,27.44
2023-06-26T05:15:00,axn,27.28
2023-06-26T05:16:00,axn,27.10
2023-06-26T05:17:00,axn,27.62
2023-06-26T05:18:00,axn,27.25
2023-06-26T05:19:00,axn,27.26
2023-06-26T05:20:00,axn,27.00
2023-06-26T05:21:00,axn,26.96
2023-06-26T05:22:00,axn,27.22
2023-06-26T05:23:00,axn,28.01
2023-06-26T05:24:00,axn,27.24
2023-06-26T05:25:00,axn,27.05
2023-06-26T05:26:00,axn,26.99
2023-06-26T05:27:00,axn,26.89
2023-06-26T05:28:00,axn,26.69
2023-06-26T05:29:00,axn,26.79
2023-06-26T05:30:00,axn,26.87
2023-06-26T05:31:00,axn,30.30
2023-06-26T05:32:00,axn,29.46
2023-06-26T05:33:00,axn,29.49
2023-06-26T05:34:00,axn,29.73
2023-06-26T05:35:00,axn,29.71
2023-06-26T05:36:00,axn,29.46
2023-06-26T05:37:00,axn,29.67
2023-06-26T05:38:00,axn,29.53
2023-06-26T05:39:00,axn,29.45
2023-06-26T05:40:00,axn,29.83
2023-06-26T05:41:00,axn,29.74
2023-06-26T05:42:00,axn,30.11
2023-06-26T05:43:00,axn,29.87
2023-06-26T05:44:00,axn,29.43
2023-06-26T05:45:00,axn,29.38
2023-06-26T05:46:00,axn,29.51
2023-06-26T05:47:00,axn,29.44
2023-06-26T05:48:00,axn,29.49
2023-06-26T05:49:00,axn,29.84
2023-06-26T05:50:00,axn,29.82
2023-06-26T05:51:00,axn,29.65
2023-06-26T05:52:00,axn,29.53
2023-06-26T05:53:00,axn,29.47
2023-06-26T05:54:00,axn,29.54
2023-06-26T05:55:00,axn,29.42
2023-06-26T05:56:00,axn,29.44
2023-06-26T05:57:00,axn,29.44
2023-06-26T05:58:00,axn,29.33
2023-06-26T05:59:00,axn,29.70
2023-06-26T06:00:00,axn,29.48
2023-06-26T06:01:00,axn,29.33
2023-06-26T06:02:00,axn,29.17
2023-06-26T06:03:00,axn,32.62
2023-06-26T06:04:00,axn,32.25
2023-06-26T06:05:00,axn,29.44
2023-06-26T06:06:00,axn,29.32
2023-06-26T06:07:00,axn,29.15
2023-06-26T06:08:00,axn,29.01
2023-06-26T06:09:00,axn,28.81
2023-06-26T06:10:00,axn,29.24
2023-06-26T06:11:00,axn,29.10
2023-06-26T06:12:00,axn,28.91
2023-06-26T06:13:00,axn,28.64
2023-06-26T06:14:00,axn,28.88
2023-06-26T06:15:00,axn,28.77
2023-06-26T06:16:00,axn,38.99
2023-06-26T06:17:00,axn,28.42
2023-06-26T06:18:00,axn,28.67
2023-06-26T06:19:00,axn,28.87
2023-06-26T06:20:00,axn,28.83
2023-06-26T06:21:00,axn,28.70
2023-06-26T06:22:00,axn,28.69
2023-06-26T06:23:00,axn,28.72
2023-06-26T06:24:00,axn,28.54
2023-06-26T06:25:00,axn,28.39
2023-06-26T06:26:00,axn,28.84
2023-06-26T06:27:00,axn,28.36
2023-06-26T06:28:00,axn,28.46
2023-06-26T06:29:00,axn,28.36
2023-06-26T06:30:00,axn,34.11
2023-06-26T06:31:00,axn,33.90
2023-06-26T06:32:00,axn,33.94
2023-06-26T06:33:00,axn,28.16
2023-06-26T06:34:00,axn,27.86
2023-06-26T06:35:00,axn,28.08
2023-06-26T06:36:00,axn,27.82
2023-06-26T06:37:00,axn,30.61
2023-06-26T06:38:00,axn,30.51
2023-06-26T06:39:00,axn,30.37
2023-06-26T06:40:00,axn,27.51
2023-06-26T06:41:00,axn,27.59
2023-06-26T06:42:00,axn,27.57
2023-06-26T06:43:00,axn,27.70
2023-06-26T06:44:00,axn,27.72
2023-06-26T06:45:00,axn,27.72
2023-06-26T06:46:00,axn,27.55
2023-06-26T06:47:00,axn,27.68
2023-06-26T06:48:00,axn,27.64
2023-06-26T06:49:00,axn,27.85
2023-06-26T06:50:00,axn,27.54
2023-06-26T06:51:00,axn,27.60
2023-06-26T06:52:00,axn,27.46
2023-06-26T06:53:00,axn,27.59
2023-06-26T06:54:00,axn,27.87
2023-06-26T06:55:00,axn,27.51
2023-06-26T06:56:00,axn,27.50
2023-06-26T06:57:00,axn,27.27
2023-06-26T06:58:00,axn,27.14
2023-06-26T06:59:00,axn,27.14
2023-06-26T07:00:00,axn,26.94
2023-06-26T07:01:00,axn,31.35
2023-06-26T07:02:00,axn,33.92
2023-06-26T07:03:00,axn,33.91
2023-06-26T07:04:00,axn,32.83
2023-06-26T07:05:00,axn,47.87
2023-06-26T07:06:00,axn,50.30
2023-06-26T07:07:00,axn,49.28
2023-06-26T07:08:00,axn,48.68
2023-06-26T07:09:00,axn,47.22
2023-06-26T07:10:00,axn,47.50
2023-06-26T07:11:00,axn,34.22
2023-06-26T07:12:00,axn,34.11
2023-06-26T07:13:00,axn,33.91
2023-06-26T07:14:00,axn,33.94
2023-06-26T07:15:00,axn,33.89
2023-06-26T07:16:00,axn,34.36
2023-06-26T07:17:00,axn,33.94
2023-06-26T07:18:00,axn,34.32
2023-06-26T07:19:00,axn,33.20
2023-06-26T07:20:00,axn,33.35
2023-06-26T07:21:00,axn,33.49
2023-06-26T07:22:00,axn,33.43
2023-06-26T07:23:00,axn,33.50
2023-06-26T07:24:00,axn,33.32
2023-06-26T07:25:00,axn,33.23
2023-06-26T07:26:00,axn,32.86
2023-06-26T07:27:00,axn,33.23
2023-06-26T07:28:00,axn,33.40
2023-06-26T07:29:00,axn,34.30
2023-06-26T07:30:00,axn,34.14
2023-06-26T07:31:00,axn,33.71
2023-06-26T07:32:00,axn,34.20
2023-06-26T07:33:00,axn,33.95
2023-06-26T07:34:00,axn,34.66
2023-06-26T07:35:00,axn,34.54
2023-06-26T07:36:00,axn,35.10
2023-06-26T07:37:00,axn,35.14
2023-06-26T07:38:00,axn,35.36
2023-06-26T07:39:00,axn,35.63
2023-06-26T07:40:00,axn,35.70
2023-06-26T07:41:00,axn,35.63
2023-06-26T07:42:00,axn,35.46
2023-06-26T07:43:00,axn,34.97
2023-06-26T07:44:00,axn,34.82
2023-06-26T07:45:00,axn,35.23
2023-06-26T07:46:00,axn,35.05
2023-06-26T07:47:00,axn,35.85
2023-06-26T07:48:00,axn,37.57
2023-06-26T07:49:00,axn,37.81
2023-06-26T07:50:00,axn,37.65
2023-06-26T07:51:00,axn,37.47
2023-06-26T07:52:00,axn,37.61
2023-06-26T07:53:00,axn,37.81
2023-06-26T07:54:00,axn,37.50
2023-06-26T07:55:00,axn,37.65
2023-06-26T07:56:00,axn,37.87
2023-06-26T07:57:00,axn,37.74
2023-06-26T07:58:00,axn,37.41
2023-06-26T07:59:00,axn,37.50
2023-06-26T08:00:00,axn,37.63
2023-06-26T08:01:00,axn,37.93
2023-06-26T08:02:00,axn,41.01
2023-06-26T08:03:00,axn,41.20
2023-06-26T08:04:00,axn,41.18
2023-06-26T08:05:00,axn,41.28
2023-06-26T08:06:00,axn,41.77
2023-06-26T08:07:00,axn,42.08
2023-06-26T08:08:00,axn,41.70
2023-06-26T08:09:00,axn,41.69
2023-06-26T08:10:00,axn,41.29
2023-06-26T08:11:00,axn,41.06
2023-06-26T08:12:00,axn,41.35
2023-06-26T08:13:00,axn,40.95
2023-06-26T08:14:00,axn,41.42
2023-06-26T08:15:00,axn,40.83
2023-06-26T08:16:00,axn,40.83
2023-06-26T08:17:00,axn,40.78
2023-06-26T08:18:00,axn,40.83
2023-06-26T08:19:00,axn,41.24
2023-06-26T08:20:00,axn,41.27
2023-06-26T08:21:00,axn,40.74
2023-06-26T08:22:00,axn,40.99
2023-06-26T08:23:00,axn,40.83
2023-06-26T08:24:00,axn,41.19
2023-06-26T08:25:00,axn,40.98
2023-06-26T08:26:00,axn,40.89
2023-06-26T08:27:00,axn,51.41
2023-06-26T08:28:00,axn,51.27
2023-06-26T08:29:00,axn,50.87
2023-06-26T08:30:00,axn,50.93
2023-06-26T08:31:00,axn,40.55
2023-06-26T08:32:00,axn,40.86
2023-06-26T08:33:00,axn,40.84
2023-06-26T08:34:00,axn,40.89
2023-06-26T08:35:00,axn,40.80
2023-06-26T08:36:00,axn,40.93
2023-06-26T08:37:00,axn,41.09
2023-06-26T08:38:00,axn,40.74
2023-06-26T08:39:00,axn,41.08
2023-06-26T08:40:00,axn,41.33
2023-06-26T08:41:00,axn,41.55
2023-06-26T08:42:00,axn,41.90
2023-06-26T08:43:00,axn,42.36
2023-06-26T08:44:00,axn,42.73
2023-06-26T08:45:00,axn,42.75
2023-06-26T08:46:00,axn,42.39
2023-06-26T08:47:00,axn,42.38
2023-06-26T08:48:00,axn,42.63
2023-06-26T08:49:00,axn,42.63
2023-06-26T08:50:00,axn,42.49
2023-06-26T08:51:00,axn,43.14
2023-06-26T08:52:00,axn,43.83
2023-06-26T08:53:00,axn,43.64
2023-06-26T08:54:00,axn,43.74
2023-06-26T08:55:00,axn,43.74
2023-06-26T08:56:00,axn,44.05
2023-06-26T08:57:00,axn,44.02
2023-06-26T08:58:00,axn,43.40
2023-06-26T08:59:00,axn,45.22
2023-06-26T09:00:00,axn,45.09
2023-06-26T09:01:00,axn,44.38
2023-06-26T09:02:00,axn,44.30
2023-06-26T09:03:00,axn,49.61
2023-06-26T09:04:00,axn,45.08
2023-06-26T09:05:00,axn,44.63
2023-06-26T09:06:00,axn,43.97
2023-06-26T09:07:00,axn,43.77
2023-06-26T09:08:00,axn,46.99
2023-06-26T09:09:00,axn,44.08
2023-06-26T09:10:00,axn,43.65
2023-06-26T09:11:00,axn,43.67
2023-06-26T09:12:00,axn,43.68
2023-06-26T09:13:00,axn,43.45
2023-06-26T09:14:00,axn,42.84
2023-06-26T09:15:00,axn,42.78
2023-06-26T09:16:00,axn,42.51
2023-06-26T09:17:00,axn,42.87
2023-06-26T09:18:00,axn,42.75
2023-06-26T09:19:00,axn,43.40
2023-06-26T09:20:00,axn,43.56
2023-06-26T09:21:00,axn,45.30
2023-06-26T09:22:00,axn,43.66
2023-06-26T09:23:00,axn,43.86
2023-06-26T09:24:00,axn,43.84
2023-06-26T09:25:00,axn,42.84
2023-06-26T09:26:00,axn,42.56
2023-06-26T09:27:00,axn,42.72
2023-06-26T09:28:00,axn,43.15
2023-06-26T09:29:00,axn,50.84
2023-06-26T09:30:00,axn,50.34
2023-06-26T09:31:00,axn,50.56
2023-06-26T09:32:00,axn,51.06
2023-06-26T09:33:00,axn,50.75
2023-06-26T09:34:00,axn,51.11
2023-06-26T09:35:00,axn,50.94
2023-06-26T09:36:00,axn,51.04
2023-06-26T09:37:00,axn,51.52
2023-06-26T09:38:00,axn,51.83
2023-06-26T09:39:00,axn,51.23
2023-06-26T09:40:00,axn,51.24
2023-06-26T09:41:00,axn,54.19
2023-06-26T09:42:00,axn,53.59
2023-06-26T09:43:00,axn,53.69
2023-06-26T09:44:00,axn,51.27
2023-06-26T09:45:00,axn,50.74
2023-06-26T09:46:00,axn,50.87
2023-06-26T09:47:00,axn,50.67
2023-06-26T09:48:00,axn,50.79
2023-06-26T09:49:00,axn,50.84
2023-06-26T09:50:00,axn,50.46
2023-06-26T09:51:00,axn,50.53
2023-06-26T09:52:00,axn,50.47
2023-06-26T09:53:00,axn,50.65
2023-06-26T09:54:00,axn,50.39
2023-06-26T09:55:00,axn,50.45
2023-06-26T09:56:00,axn,50.16
2023-06-26T09:57:00,axn,50.24
2023-06-26T09:58:00,axn,50.18
2023-06-26T09:59:00,axn,50.05
2023-06-26T10:00:00,axn,50.23
2023-06-26T10:01:00,axn,50.54
2023-06-26T10:02:00,axn,50.02
2023-06-26T10:03:00,axn,50.16
2023-06-26T10:04:00,axn,50.27
2023-06-26T10:05:00,axn,50.05
2023-06-26T10:06:00,axn,50.39
2023-06-26T10:07:00,axn,50.22
2023-06-26T10:08:00,axn,50.15
2023-06-26T10:09:00,axn,50.19
2023-06-26T10:10:00,axn,49.84
2023-06-26T10:11:00,axn,49.54
2023-06-26T10:12:00,axn,50.44
2023-06-26T10:13:00,axn,50.05
2023-06-26T10:14:00,axn,50.20
2023-06-26T10:15:00,axn,50.45
2023-06-26T10:16:00,axn,50.57
2023-06-26T10:17:00,axn,50.42
2023-06-26T10:18:00,axn,50.48
2023-06-26T10:19:00,axn,50.36
2023-06-26T10:20:00,axn,50.12
2023-06-26T10:21:00,axn,50.36
2023-06-26T10:22:00,axn,54.79
2023-06-26T10:23:00,axn,54.83
2023-06-26T10:24:00,axn,54.72
2023-06-26T10:25:00,axn,50.38
2023-06-26T10:26:00,axn,50.68
2023-06-26T10:27:00,axn,50.79
2023-06-26T10:28:00,axn,50.77
2023-06-26T10:29:00,axn,50.54
2023-06-26T10:30:00,axn,50.59
2023-06-26T10:31:00,axn,50.56
2023-06-26T10:32:00,axn,50.89
2023-06-26T10:33:00,axn,50.53
2023-06-26T10:34:00,axn,50.26
2023-06-26T10:35:00,axn,50.18
2023-06-26T10:36:00,axn,50.60
2023-06-26T10:37:00,axn,52.71
2023-06-26T10:38:00,axn,50.75
2023-06-26T10:39:00,axn,50.96
2023-06-26T10:40:00,axn,50.91
2023-06-26T10:41:00,axn,51.06
2023-06-26T10:42:00,axn,51.08
2023-06-26T10:43:00,axn,51.79
2023-06-26T10:44:00,axn,51.71
2023-06-26T10:45:00,axn,51.43
2023-06-26T10:46:00,axn,51.96
2023-06-26T10:47:00,axn,49.48
2023-06-26T10:48:00,axn,49.46
2023-06-26T10:49:00,axn,49.13
2023-06-26T10:50:00,axn,48.89
2023-06-26T10:51:00,axn,49.23
2023-06-26T10:52:00,axn,49.10
2023-06-26T10:53:00,axn,49.27
2023-06-26T10:54:00,axn,48.74
2023-06-26T10:55:00,axn,48.82
2023-06-26T10:56:00,axn,48.29
2023-06-26T10:57:00,axn,48.45
2023-06-26T10:58:00,axn,48.60
2023-06-26T10:59:00,axn,48.67
2023-06-26T11:00:00,axn,49.03
2023-06-26T11:01:00,axn,48.87
2023-06-26T11:02:00,axn,48.82
2023-06-26T11:03:00,axn,48.81
2023-06-26T11:04:00,axn,49.18
2023-06-26T11:05:00,axn,49.31
2023-06-26T11:06:00,axn,48.70
2023-06-26T11:07:00,axn,48.81
2023-06-26T11:08:00,axn,49.39
2023-06-26T11:09:00,axn,48.74
2023-06-26T11:10:00,axn,48.02
2023-06-26T11:11:00,axn,48.24
2023-06-26T11:12:00,axn,48.59
2023-06-26T11:13:00,axn,48.50
2023-06-26T11:14:00,axn,48.31
2023-06-26T11:15:00,axn,48.49
2023-06-26T11:16:00,axn,48.22
2023-06-26T11:17:00,axn,48.31
2023-06-26T11:18:00,axn,48.13
2023-06-26T11:19:00,axn,48.23
2023-06-26T11:20:00,axn,49.02
2023-06-26T11:21:00,axn,49.04
2023-06-26T11:22:00,axn,48.84
2023-06-26T11:23:00,axn,48.79
2023-06-26T11:24:00,axn,49.97
2023-06-26T11:25:00,axn,50.13
2023-06-26T11:26:00,axn,47.96
2023-06-26T11:27:00,axn,48.04
2023-06-26T11:28:00,axn,48.38
2023-06-26T11:29:00,axn,48.36
2023-06-26T11:30:00,axn,48.43
2023-06-26T11:31:00,axn,48.51
2023-06-26T11:32:00,axn,48.73
2023-06-26T11:33:00,axn,48.52
2023-06-26T11:34:00,axn,48.48
2023-06-26T11:35:00,axn,48.74
2023-06-26T11:36:00,axn,48.37
2023-06-26T11:37:00,axn,48.34
2023-06-26T11:38:00,axn,48.13
2023-06-26T11:39:00,axn,48.12
2023-06-26T11:40:00,axn,48.17
2023-06-26T11:41:00,axn,48.18
2023-06-26T11:42:00,axn,47.72
2023-06-26T11:43:00,axn,47.92
2023-06-26T11:44:00,axn,48.53
2023-06-26T11:45:00,axn,48.47
2023-06-26T11:46:00,axn,47.79
2023-06-26T11:47:00,axn,47.80
2023-06-26T11:48:00,axn,47.79
2023-06-26T11:49:00,axn,47.55
2023-06-26T11:50:00,axn,47.64
2023-06-26T11:51:00,axn,47.50
2023-06-26T11:52:00,axn,47.61
2023-06-26T11:53:00,axn,47.35
2023-06-26T11:54:00,axn,47.25
2023-06-26T11:55:00,axn,47.34
2023-06-26T11:56:00,axn,47.51
2023-06-26T11:57:00,axn,47.32
2023-06-26T11:58:00,axn,47.30
2023-06-26T11:59:00,axn,47.47
2023-06-26T12:00:00,axn,47.29
2023-06-26T12:01:00,axn,47.10
2023-06-26T12:02:00,axn,47.36
2023-06-26T12:03:00,axn,47.81
2023-06-26T12:04:00,axn,47.73
2023-06-26T12:05:00,axn,50.40
2023-06-26T12:06:00,axn,47.66
2023-06-26T12:07:00,axn,47.77
2023-06-26T12:08:00,axn,48.10
2023-06-26T12:09:00,axn,50.86
2023-06-26T12:10:00,axn,50.47
2023-06-26T12:11:00,axn,50.41
2023-06-26T12:12:00,axn,47.71
2023-06-26T12:13:00,axn,47.65
2023-06-26T12:14:00,axn,48.15
2023-06-26T12:15:00,axn,47.66
2023-06-26T12:16:00,axn,47.57
2023-06-26T12:17:00,axn,47.83
2023-06-26T12:18:00,axn,62.41
2023-06-26T12:19:00,axn,62.47
2023-06-26T12:20:00,axn,62.09
2023-06-26T12:21:00,axn,61.89
2023-06-26T12:22:00,axn,61.73
2023-06-26T12:23:00,axn,48.16
2023-06-26T12:24:00,axn,47.99
2023-06-26T12:25:00,axn,47.96
2023-06-26T12:26:00,axn,48.08
2023-06-26T12:27:00,axn,47.95
2023-06-26T12:28:00,axn,47.83
2023-06-26T12:29:00,axn,47.64
2023-06-26T12:30:00,axn,47.52
2023-06-26T12:31:00,axn,47.84
2023-06-26T12:32:00,axn,47.63
2023-06-26T12:33:00,axn,47.59
2023-06-26T12:34:00,axn,47.40
2023-06-26T12:35:00,axn,47.10
2023-06-26T12:36:00,axn,47.33
2023-06-26T12:37:00,axn,47.47
2023-06-26T12:38:00,axn,47.73
2023-06-26T12:39:00,axn,47.40
2023-06-26T12:40:00,axn,47.50
2023-06-26T12:41:00,axn,46.87
2023-06-26T12:42:00,axn,46.39
2023-06-26T12:43:00,axn,46.60
2023-06-26T12:44:00,axn,46.94
2023-06-26T12:45:00,axn,46.91
2023-06-26T12:46:00,axn,46.87
2023-06-26T12:47:00,axn,46.82
2023-06-26T12:48:00,axn,46.54
2023-06-26T12:49:00,axn,46.55
2023-06-26T12:50:00,axn,38.81
2023-06-26T12:51:00,axn,39.00
2023-06-26T12:52:00,axn,38.64
2023-06-26T12:53:00,axn,38.69
2023-06-26T12:54:00,axn,38.71
2023-06-26T12:55:00,axn,39.50
2023-06-26T12:56:00,axn,39.77
2023-06-26T12:57:00,axn,40.06
2023-06-26T12:58:00,axn,40.07
2023-06-26T12:59:00,axn,40.31
2023-06-26T13:00:00,axn,39.88
2023-06-26T13:01:00,axn,40.09
2023-06-26T13:02:00,axn,39.66
2023-06-26T13:03:00,axn,39.91
2023-06-26T13:04:00,axn,40.05
2023-06-26T13:05:00,axn,40.06
2023-06-26T13:06:00,axn,40.18
2023-06-26T13:07:00,axn,40.58
2023-06-26T13:08:00,axn,39.94
2023-06-26T13:09:00,axn,40.23
2023-06-26T13:10:00,axn,39.47
2023-06-26T13:11:00,axn,39.91
2023-06-26T13:12:00,axn,39.43
2023-06-26T13:13:00,axn,39.57
2023-06-26T13:14:00,axn,39.63
2023-06-26T13:15:00,axn,39.41
2023-06-26T13:16:00,axn,39.61
2023-06-26T13:17:00,axn,39.51
2023-06-26T13:18:00,axn,39.67